Location: Zapote
(9.9191°N, 84.0597°W)
Time: 03:23:54
(UTC-06:00)

N. Korean satellite - Pass Details

Date: 27 January 2021
Orbit: 451 x 503 km, 97.2° (Epoch: 27 February)

Event Time Altitude Azimuth Distance (km) Brightness Sun altitude
Rises 04:16:46 0° 27° (NNE) 2,449 10.3 -24.9°
Reaches altitude 10° 04:19:00 10° 40° (NE) 1,575 9.4 -24.3°
Maximum altitude 04:21:55 27° 100° (E) 890 8.6 -23.6°
Drops below altitude 10° 04:24:50 10° 160° (SSE) 1,578 9.6 -23.0°
Sets 04:27:03 0° 172° (S) 2,453 10.4 -22.4°
